Weather History for CYUS - January, 2013

Change the Weather History Date:

Friday, January 4, 2013

  Actual Average Record
Temperature  
Mean Temperature -24 °F -  
Max Temperature -14 °F - - ()
Min Temperature -36 °F - - ()
Degree Days  
Heating Degree Days 89    
Moisture  
Dew Point -    
Average Humidity    
Maximum Humidity    
Minimum Humidity    
Precipitation  
Precipitation 0.00 in - - ()
Sea Level Pressure  
Sea Level Pressure 29.57 in    
Wind  
Wind Speed 8 mph ()    
Max Wind Speed 21 mph    
Max Gust Speed -    
Visibility 4.9 miles    
Events      
T = Trace of Precipitation, MM = Missing Value Source: Averaged Metar Reports

Daily Weather History Graph

Daily Weather History Graph

Search for Another Location

Airport or City:

Trip Planner

Search our weather history database for the weather conditions in past years. The results will help you decide how hot, cold, wet, or windy it might be!

Date:

Astronomy

Jan. 04, 2013 Rise Set
Actual Time 11:46 AM CST 12:51 PM CST
Civil Twilight 9:37 AM CST 3:00 PM CST
Nautical Twilight 8:06 AM CST 4:31 PM CST
Astronomical Twilight 6:53 AM CST 5:44 PM CST
Moon 12:13 AM CST (1/4) 10:28 AM CST (1/4)
Length of Visible Light 5h 22m
Length of Day
1h 04m
Waning Gibbous, 55% of the Moon is Illuminated
Jan 4
Waning Gibbous
Jan 4
Last Quarter
Jan 11
New
Jan 18
First Quarter
Jan 26
Full

Hourly Weather History & Observations

Time (CST) Temp. Windchill Dew Point Humidity Pressure Visibility Wind Dir Wind Speed Gust Speed Precip Events Conditions
12:00 AM -15 °F - - % 29.48 in 2 mi SW 9.2 mph - -  
12:00 AM -14.8 °F -33.5 °F - N/A% 29.48 in 1.5 mi SW 9.2 mph - N/A   Unknown
12:18 AM -14.8 °F -30.8 °F - N/A% 29.45 in 4.0 mi SW 6.9 mph - N/A   Unknown
1:00 AM -18.4 °F -33.4 °F - N/A% 29.47 in 9.0 mi WSW 5.8 mph - N/A   Unknown
1:51 AM -22.0 °F -37.7 °F - N/A% 29.44 in 4.0 mi WSW 5.8 mph - N/A   Unknown
2:00 AM -22.0 °F -39.4 °F - N/A% 29.47 in 5.0 mi WSW 6.9 mph - N/A   Unknown
2:05 AM -22.0 °F -39.4 °F - N/A% 29.44 in 2.8 mi WSW 6.9 mph - N/A   Unknown
2:33 AM -23.8 °F -41.6 °F - N/A% 29.44 in 4.0 mi WSW 6.9 mph - N/A   Unknown
3:00 AM -24 °F - - % 29.48 in 7 mi WSW 5.8 mph - -  
3:00 AM -23.8 °F -37.7 °F - N/A% 29.48 in 8.0 mi WSW 4.6 mph - N/A   Unknown
4:00 AM -23.8 °F -35.0 °F - N/A% 29.48 in 5.0 mi West 3.5 mph - N/A   Unknown
4:39 AM -23.8 °F -35.0 °F - N/A% 29.45 in 9.0 mi SW 3.5 mph - N/A   Unknown
4:46 AM -23.8 °F -37.7 °F - N/A% 29.45 in 2.8 mi SW 4.6 mph - N/A   Unknown
4:50 AM -23.8 °F -35.0 °F - N/A% 29.45 in 2.0 mi SW 3.5 mph - N/A   Unknown
4:57 AM -23.8 °F -35.0 °F - N/A% 29.45 in 1.4 mi SW 3.5 mph - N/A   Unknown
5:00 AM -23.8 °F -35.0 °F - N/A% 29.48 in 1.2 mi SW 3.5 mph - N/A   Unknown
5:15 AM -23.8 °F - - N/A% 29.45 in 2.1 mi SSW 2.3 mph - N/A   Unknown
5:23 AM -25.6 °F - - N/A% 29.45 in 2.5 mi South 2.3 mph - N/A   Unknown
5:34 AM -25.6 °F -37.1 °F - N/A% 29.45 in 5.0 mi ESE 3.5 mph - N/A   Unknown
6:00 AM -29 °F - - % 29.48 in 9 mi SSE 5.8 mph - -  
6:39 AM -27.4 °F -39.2 °F - N/A% 29.46 in 3.0 mi East 3.5 mph - N/A   Unknown
6:52 AM -27.4 °F -41.9 °F - N/A% 29.47 in 9.0 mi East 4.6 mph - N/A   Unknown
7:00 AM -29.2 °F -44.0 °F - N/A% 29.50 in 4.0 mi East 4.6 mph - N/A   Unknown
7:04 AM -29.2 °F -44.0 °F - N/A% 29.47 in 2.1 mi East 4.6 mph - N/A   Unknown
7:09 AM -29.2 °F -44.0 °F - N/A% 29.47 in 2.2 mi East 4.6 mph - N/A   Unknown
7:20 AM -29.2 °F -46.2 °F - N/A% 29.47 in 9.0 mi East 5.8 mph - N/A   Unknown
8:00 AM -31.0 °F -51.9 °F - N/A% 29.50 in 5.0 mi East 8.1 mph - N/A   Unknown
9:00 AM -30 °F - - % 29.52 in 9 mi ENE 8.1 mph - -  
9:00 AM -31.0 °F -53.4 °F - N/A% 29.52 in 9.0 mi East 9.2 mph - N/A   Unknown
10:00 AM -31.0 °F -53.4 °F - N/A% 29.54 in 7.0 mi ENE 9.2 mph - N/A   Unknown
11:00 AM -29.2 °F -54.8 °F - N/A% 29.57 in 9.0 mi NNE 12.7 mph - N/A   Unknown
12:00 PM -31 °F - - % 29.59 in 3 mi North 11.5 mph - -  
12:00 PM -31.0 °F -56.0 °F - N/A% 29.59 in 3.0 mi North 11.5 mph - N/A   Unknown
1:00 PM -31.0 °F -60.8 °F - N/A% 29.61 in 4.0 mi NNE 17.3 mph - N/A   Unknown
1:17 PM -29.2 °F -57.6 °F - N/A% 29.59 in 7.0 mi NNE 16.1 mph - N/A   Unknown
1:31 PM -27.4 °F -54.5 °F - N/A% 29.59 in 3.0 mi NNE 15.0 mph - N/A   Unknown
1:40 PM -27.4 °F -55.3 °F - N/A% 29.60 in 3.0 mi NNE 16.1 mph - N/A   Unknown
1:49 PM -27.4 °F -57.7 °F - N/A% 29.60 in 4.0 mi NNE 19.6 mph - N/A   Unknown
2:00 PM -27.4 °F -58.4 °F - N/A% 29.64 in 3.5 mi North 20.7 mph - N/A   Unknown
2:31 PM -31.0 °F -59.1 °F - N/A% 29.63 in 3.0 mi North 15.0 mph - N/A   Unknown
2:51 PM -31.0 °F -60.0 °F - N/A% 29.63 in 3.0 mi North 16.1 mph - N/A   Unknown
2:52 PM -32.8 °F -61.4 °F - N/A% 29.64 in 3.0 mi North 15.0 mph - N/A   Unknown
2:59 PM -31.0 °F -58.1 °F - N/A% 29.64 in 3.0 mi North 13.8 mph - N/A   Unknown
3:00 PM -31 °F - - % 29.67 in 3 mi North 15.0 mph - -  
3:00 PM -31.0 °F -57.1 °F - N/A% 29.67 in 3.0 mi North 12.7 mph - N/A   Unknown
3:06 PM -31.0 °F -60.0 °F - N/A% 29.64 in 2.8 mi North 16.1 mph - N/A   Unknown
3:36 PM -31.0 °F -56.0 °F - N/A% 29.65 in 3.0 mi North 11.5 mph - N/A   Unknown
3:55 PM -29.2 °F -55.8 °F - N/A% 29.66 in 3.0 mi North 13.8 mph - N/A   Unknown
4:00 PM -29.2 °F -56.8 °F - N/A% 29.69 in 2.8 mi North 15.0 mph - N/A   Unknown
4:20 PM -29.2 °F -59.3 °F - N/A% 29.67 in 4.0 mi North 18.4 mph - N/A   Unknown
5:00 PM -29.2 °F -54.8 °F - N/A% 29.72 in 6.0 mi North 12.7 mph - N/A   Unknown
6:00 PM -30 °F - - % 29.75 in 9 mi North 10.4 mph - -  
6:00 PM -29.2 °F -52.5 °F - N/A% 29.75 in 9.0 mi NNW 10.4 mph - N/A   Unknown
7:00 PM -29.2 °F -46.2 °F - N/A% 29.75 in 9.0 mi North 5.8 mph - N/A   Unknown
8:00 PM -27.4 °F -47.6 °F - N/A% 29.75 in 9.0 mi West 8.1 mph - N/A   Unknown
9:00 PM -30 °F - - % 29.75 in 6 mi West 6.9 mph - -  
9:01 PM -31.0 °F -50.3 °F - N/A% 29.72 in 5.0 mi West 6.9 mph - N/A   Unknown
9:30 PM -29.2 °F -44.0 °F - N/A% 29.71 in 9.0 mi West 4.6 mph - N/A   Unknown
10:00 PM -32.8 °F -55.6 °F - N/A% 29.75 in 9.0 mi WNW 9.2 mph - N/A   Unknown
11:00 PM -31.0 °F -50.3 °F - N/A% 29.75 in 7.0 mi West 6.9 mph - N/A   Unknown
11:32 PM -34.6 °F -47.4 °F - N/A% 29.72 in 4.0 mi West 3.5 mph - N/A   Unknown
11:47 PM -36.4 °F -49.4 °F - N/A% 29.72 in 1.4 mi West 3.5 mph - N/A   Unknown